When you browse on this site, cookies collect data to enhance your experience and personalize the content and advertising you see.
Visit our Privacy Policy to learn more. By continuing to use the site, you agree to this use of cookies and data.
  • In Czech Republic
  • List of Countries
  • For 7 days
  • Water Temperature
  • Satellite Maps
  • Weather Map
  • Weather Widgets
  • user-avatar
    Login

    Hourly Weather Kenitra

    Today, 20 March, Wednesday

    Time Temperature Precipitation Wind Pressure Humidity
    00:00 +12°C° 0 mm 3 mps 762 mmHg 80%
    01:00 +12°C° 0 mm 3 mps 762 mmHg 82%
    02:00 +11°C° 0 mm 3 mps 762 mmHg 83%
    03:00 +11°C° 0 mm 3 mps 761 mmHg 84%
    04:00 +11°C° 0 mm 4 mps 761 mmHg 82%
    05:00 +10°C° 0 mm 5 mps 761 mmHg 80%
    06:00 +10°C° 0 mm 6 mps 761 mmHg 78%
    07:00 +13°C° 0 mm 6 mps 761 mmHg 68%
    08:00 +14°C° 0 mm 7 mps 762 mmHg 59%
    09:00 +16°C° 0 mm 8 mps 762 mmHg 49%
    10:00 +17°C° 0 mm 8 mps 762 mmHg 46%
    11:00 +20°C° 0 mm 8 mps 762 mmHg 43%
    12:00 +22°C° 0 mm 8 mps 762 mmHg 39%
    13:00 +22°C° 0 mm 7 mps 761 mmHg 39%
    14:00 +22°C° 0 mm 7 mps 761 mmHg 39%
    15:00 +23°C° 0 mm 7 mps 760 mmHg 39%
    16:00 +21°C° 0 mm 6 mps 760 mmHg 44%
    17:00 +20°C° 0 mm 5 mps 760 mmHg 50%
    18:00 +19°C° 0 mm 5 mps 760 mmHg 55%
    19:00 +17°C° 0 mm 5 mps 761 mmHg 53%
    20:00 +15°C° 0 mm 5 mps 761 mmHg 51%
    21:00 +14°C° 0 mm 6 mps 762 mmHg 48%
    22:00 +14°C° 0 mm 7 mps 762 mmHg 48%
    23:00 +13°C° 0 mm 8 mps 762 mmHg 47%

    Tomorrow, 21 March, Thursday

    Time Temperature Precipitation Wind Pressure Humidity
    00:00 +12°C° 0 mm 10 mps 762 mmHg 47%
    01:00 +12°C° 0 mm 10 mps 761 mmHg 48%
    02:00 +11°C° 0 mm 10 mps 761 mmHg 49%
    03:00 +11°C° 0 mm 9 mps 761 mmHg 50%
    04:00 +11°C° 0 mm 9 mps 760 mmHg 50%
    05:00 +10°C° 0 mm 9 mps 760 mmHg 51%
    06:00 +10°C° 0 mm 9 mps 760 mmHg 52%
    07:00 +11°C° 0 mm 9 mps 760 mmHg 51%
    08:00 +12°C° 0 mm 10 mps 761 mmHg 49%
    09:00 +13°C° 0 mm 10 mps 761 mmHg 47%
    10:00 +16°C° 0 mm 10 mps 761 mmHg 45%
    11:00 +17°C° 0 mm 10 mps 761 mmHg 42%
    12:00 +19°C° 0 mm 9 mps 760 mmHg 39%
    13:00 +19°C° 0 mm 9 mps 760 mmHg 38%
    14:00 +21°C° 0 mm 9 mps 760 mmHg 38%
    15:00 +21°C° 0 mm 8 mps 759 mmHg 37%
    16:00 +20°C° 0 mm 8 mps 759 mmHg 41%
    17:00 +18°C° 0 mm 7 mps 759 mmHg 45%
    18:00 +17°C° 0 mm 6 mps 759 mmHg 49%
    19:00 +16°C° 0 mm 7 mps 760 mmHg 51%
    20:00 +15°C° 0 mm 7 mps 760 mmHg 52%
    21:00 +12°C° 0 mm 8 mps 761 mmHg 54%
    22:00 +12°C° 0 mm 8 mps 761 mmHg 55%
    23:00 +12°C° 0 mm 8 mps 760 mmHg 55%

    Day after tomorrow, 22 March, Friday

    Time Temperature Precipitation Wind Pressure Humidity
    00:00 +12°C° 0 mm 8 mps 760 mmHg 56%
    01:00 +12°C° 0 mm 8 mps 760 mmHg 56%
    02:00 +12°C° 0 mm 8 mps 760 mmHg 56%
    03:00 +12°C° 0 mm 8 mps 760 mmHg 55%
    04:00 +11°C° 0 mm 8 mps 760 mmHg 56%
    05:00 +11°C° 0 mm 8 mps 760 mmHg 57%
    06:00 +11°C° 0 mm 8 mps 760 mmHg 58%
    07:00 +12°C° 0 mm 8 mps 760 mmHg 57%
    08:00 +13°C° 0 mm 8 mps 760 mmHg 55%
    09:00 +16°C° 0 mm 8 mps 761 mmHg 53%
    10:00 +17°C° 0 mm 8 mps 760 mmHg 50%
    11:00 +20°C° 0 mm 7 mps 760 mmHg 47%
    12:00 +22°C° 0 mm 7 mps 760 mmHg 44%
    13:00 +22°C° 0 mm 7 mps 760 mmHg 42%
    14:00 +23°C° 0 mm 7 mps 759 mmHg 41%
    15:00 +23°C° 0 mm 7 mps 759 mmHg 39%
    16:00 +22°C° 0 mm 7 mps 758 mmHg 44%
    17:00 +21°C° 0 mm 6 mps 758 mmHg 48%
    18:00 +20°C° 0 mm 6 mps 758 mmHg 52%
    19:00 +19°C° 0 mm 6 mps 759 mmHg 54%
    20:00 +17°C° 0 mm 7 mps 759 mmHg 56%
    21:00 +15°C° 0 mm 7 mps 760 mmHg 57%
    22:00 +15°C° 0 mm 7 mps 760 mmHg 58%
    23:00 +15°C° 0 mm 8 mps 759 mmHg 58%

    23 March, Saturday

    Time Temperature Precipitation Wind Pressure Humidity
    00:00 +15°C° 0 mm 8 mps 759 mmHg 59%
    01:00 +13°C° 0 mm 8 mps 759 mmHg 58%
    02:00 +13°C° 0 mm 8 mps 758 mmHg 58%
    03:00 +13°C° 0 mm 8 mps 758 mmHg 58%
    04:00 +13°C° 0 mm 8 mps 757 mmHg 59%
    05:00 +12°C° 0 mm 7 mps 757 mmHg 61%
    06:00 +12°C° 0 mm 7 mps 757 mmHg 62%
    07:00 +15°C° 0 mm 7 mps 757 mmHg 59%
    08:00 +16°C° 0 mm 8 mps 757 mmHg 57%
    09:00 +18°C° 0 mm 8 mps 757 mmHg 54%
    10:00 +20°C° 0 mm 8 mps 757 mmHg 50%
    11:00 +22°C° 0 mm 7 mps 757 mmHg 47%
    12:00 +24°C° 0 mm 7 mps 756 mmHg 43%
    13:00 +26°C° 0 mm 7 mps 756 mmHg 42%
    14:00 +26°C° 0 mm 7 mps 755 mmHg 41%
    15:00 +27°C° 0 mm 7 mps 755 mmHg 40%
    16:00 +24°C° 0 mm 7 mps 755 mmHg 43%
    17:00 +23°C° 0 mm 8 mps 755 mmHg 46%
    18:00 +22°C° 0 mm 8 mps 755 mmHg 50%
    19:00 +21°C° 0.2 mm 8 mps 755 mmHg 50%
    20:00 +20°C° 0.2 mm 7 mps 756 mmHg 50%
    21:00 +18°C° 0.2 mm 7 mps 756 mmHg 51%
    22:00 +17°C° 0 mm 6 mps 756 mmHg 51%
    23:00 +17°C° 0 mm 5 mps 756 mmHg 52%

    24 March, Sunday

    Time Temperature Precipitation Wind Pressure Humidity
    00:00 +17°C° 0 mm 5 mps 756 mmHg 53%
    01:00 +16°C° 0.3 mm 5 mps 756 mmHg 58%
    02:00 +17°C° 0.3 mm 4 mps 756 mmHg 63%
    03:00 +15°C° 0.3 mm 4 mps 756 mmHg 68%
    04:00 +15°C° 0.6 mm 4 mps 756 mmHg 71%
    05:00 +14°C° 0.6 mm 4 mps 756 mmHg 73%
    06:00 +14°C° 0.6 mm 4 mps 756 mmHg 76%
    07:00 +15°C° 0.2 mm 4 mps 756 mmHg 73%
    08:00 +17°C° 0.2 mm 4 mps 757 mmHg 70%
    09:00 +18°C° 0.2 mm 4 mps 757 mmHg 67%
    10:00 +20°C° 0 mm 4 mps 757 mmHg 60%
    11:00 +22°C° 0 mm 3 mps 757 mmHg 53%
    12:00 +24°C° 0 mm 3 mps 757 mmHg 46%
    13:00 +25°C° 0 mm 3 mps 756 mmHg 45%
    14:00 +25°C° 0 mm 4 mps 756 mmHg 45%
    15:00 +25°C° 0 mm 4 mps 755 mmHg 44%
    16:00 +23°C° 0 mm 4 mps 755 mmHg 50%
    17:00 +22°C° 0 mm 4 mps 756 mmHg 56%
    18:00 +21°C° 0 mm 4 mps 756 mmHg 63%
    19:00 +20°C° 0 mm 4 mps 756 mmHg 64%
    20:00 +18°C° 0 mm 4 mps 756 mmHg 65%
    21:00 +17°C° 0 mm 4 mps 757 mmHg 66%
    22:00 +17°C° 0 mm 4 mps 757 mmHg 67%
    23:00 +15°C° 0 mm 4 mps 756 mmHg 68%

    25 March, Monday

    Time Temperature Precipitation Wind Pressure Humidity
    00:00 +14°C° 0 mm 4 mps 756 mmHg 69%
    01:00 +14°C° 0 mm 4 mps 756 mmHg 70%
    02:00 +14°C° 0 mm 4 mps 755 mmHg 70%
    03:00 +14°C° 0 mm 4 mps 755 mmHg 70%
    04:00 +14°C° 0 mm 4 mps 755 mmHg 71%
    05:00 +13°C° 0 mm 3 mps 755 mmHg 72%
    06:00 +13°C° 0 mm 3 mps 755 mmHg 72%
    07:00 +16°C° 0 mm 3 mps 756 mmHg 69%
    08:00 +17°C° 0 mm 2 mps 756 mmHg 65%
    09:00 +19°C° 0 mm 2 mps 756 mmHg 61%
    10:00 +20°C° 0 mm 2 mps 756 mmHg 57%
    11:00 +23°C° 0 mm 1 mps 756 mmHg 53%
    12:00 +25°C° 0 mm 1 mps 756 mmHg 49%
    13:00 +25°C° 0 mm 2 mps 755 mmHg 49%
    14:00 +25°C° 0 mm 2 mps 755 mmHg 48%
    15:00 +26°C° 0 mm 3 mps 754 mmHg 48%
    16:00 +24°C° 0 mm 3 mps 754 mmHg 55%
    17:00 +22°C° 0 mm 4 mps 754 mmHg 62%
    18:00 +21°C° 0 mm 4 mps 754 mmHg 69%
    19:00 +20°C° 0.2 mm 3 mps 755 mmHg 71%
    20:00 +19°C° 0.2 mm 2 mps 755 mmHg 73%
    21:00 +19°C° 0.2 mm 1 mps 755 mmHg 75%
    22:00 +18°C° 0.3 mm 2 mps 755 mmHg 77%
    23:00 +17°C° 0.3 mm 2 mps 755 mmHg 80%
    Show more